Precipitable_Water
0.99 0.98 1.12 1.00 0.74 0.74 0.60 0.69 0.85 0.75 0.76 0.91 0.97 0.79 0.59 0.62 0.49 0.43 1.12 1.23 1.21 1.22 1.28 1.23 1.15 1.08 1.04 1.01 1.00 0.97 0.96 0.92 0.94 0.91 0.89 0.87 0.81 0.78 0.78 0.78 0.81 0.83 0.84 0.83 0.80 0.78 0.75 0.72 0.69
0.97 0.98 1.02 0.83 0.59 0.49 0.54 0.79 0.75 0.80 0.92 1.03 1.00 0.99 0.77 0.54 0.81 0.91 1.05 1.20 1.25 1.28 1.29 1.26 1.21 1.16 1.09 1.04 1.02 1.00 0.96 0.96 0.93 0.92 0.90 0.84 0.83 0.83 0.82 0.82 0.84 0.85 0.85 0.83 0.81 0.79 0.76 0.75 0.73
0.95 0.98 0.75 0.66 0.59 0.48 0.51 0.75 0.83 0.92 0.92 0.92 0.89 1.10 0.94 0.73 0.89 0.97 1.17 1.25 1.30 1.29 1.29 1.30 1.26 1.17 1.10 1.04 1.00 0.98 0.94 0.90 0.89 0.90 0.88 0.85 0.85 0.84 0.83 0.83 0.85 0.86 0.87 0.86 0.85 0.82 0.79 0.76 0.76
0.87 0.86 0.78 0.58 0.52 0.61 0.66 0.78 0.88 0.89 0.86 0.94 1.00 0.91 1.13 1.18 1.01 1.07 1.24 1.28 1.27 1.27 1.33 1.32 1.24 1.14 1.06 1.00 0.98 0.92 0.88 0.86 0.86 0.86 0.85 0.85 0.82 0.81 0.82 0.84 0.88 0.90 0.91 0.91 0.89 0.86 0.84 0.80 0.76
0.90 0.79 0.57 0.54 0.57 0.65 0.75 0.84 0.89 0.83 0.86 0.90 0.98 0.88 0.94 1.22 1.36 1.30 1.25 1.29 1.23 1.25 1.30 1.27 1.19 1.09 1.00 0.95 0.90 0.83 0.82 0.84 0.83 0.83 0.84 0.83 0.84 0.85 0.87 0.88 0.89 0.91 0.90 0.90 0.86 0.84 0.82 0.78 0.73
0.64 0.69 0.50 0.47 0.55 0.67 0.76 0.82 0.82 0.78 0.85 0.91 0.95 0.96 0.99 1.25 1.28 1.30 1.32 1.27 1.23 1.21 1.24 1.19 1.11 1.00 0.93 0.84 0.78 0.79 0.78 0.78 0.78 0.79 0.81 0.86 0.90 0.91 0.90 0.90 0.92 0.92 0.89 0.85 0.80 0.76 0.72 0.69 0.63
0.60 0.55 0.47 0.54 0.58 0.60 0.70 0.86 0.77 0.78 0.80 0.86 1.07 0.88 0.98 1.10 1.25 1.32 1.30 1.25 1.21 1.17 1.08 0.98 0.93 0.85 0.81 0.77 0.77 0.76 0.77 0.79 0.82 0.79 0.86 0.91 0.91 0.89 0.88 0.87 0.86 0.86 0.81 0.79 0.77 0.72 0.66 0.62 0.58
0.64 0.57 0.48 0.56 0.59 0.57 0.73 0.77 0.84 0.81 0.80 1.09 1.13 0.82 0.84 1.06 1.24 1.28 1.23 1.18 1.11 1.08 1.00 0.88 0.81 0.78 0.76 0.76 0.79 0.81 0.83 0.86 0.85 0.85 0.87 0.86 0.82 0.79 0.80 0.80 0.79 0.76 0.71 0.70 0.66 0.64 0.59 0.55 0.50
0.65 0.42 0.38 0.47 0.55 0.60 0.68 0.66 0.84 0.94 0.86 0.98 1.03 1.01 1.07 1.18 1.25 1.21 1.14 1.12 1.10 1.06 0.97 0.86 0.82 0.84 0.90 0.93 0.95 0.91 0.88 0.83 0.80 0.82 0.83 0.79 0.78 0.76 0.75 0.74 0.70 0.67 0.64 0.61 0.59 0.56 0.50 0.47 0.43
0.43 0.33 0.37 0.52 0.56 0.49 0.57 0.65 0.76 0.75 0.80 0.90 0.95 1.05 1.15 1.20 1.22 1.13 1.12 1.07 1.06 1.03 0.95 0.92 0.94 0.95 0.96 0.96 0.93 0.87 0.83 0.80 0.77 0.78 0.79 0.77 0.75 0.72 0.68 0.61 0.60 0.58 0.57 0.54 0.51 0.48 0.45 0.41 0.38
0.36 0.30 0.42 0.46 0.48 0.50 0.52 0.62 0.78 0.72 0.71 0.86 0.87 0.94 1.07 1.14 1.19 1.16 1.11 1.10 1.06 1.04 1.00 0.95 0.93 0.94 0.93 0.91 0.90 0.85 0.81 0.78 0.75 0.77 0.76 0.74 0.68 0.61 0.58 0.57 0.54 0.51 0.49 0.45 0.43 0.40 0.38 0.35 0.33
0.26 0.34 0.41 0.41 0.43 0.43 0.48 0.66 0.69 0.80 0.83 0.99 1.00 1.06 1.10 1.11 1.15 1.15 1.14 1.08 1.04 1.06 1.00 0.95 0.94 0.94 0.95 0.95 0.90 0.83 0.75 0.70 0.70 0.73 0.72 0.67 0.60 0.56 0.55 0.53 0.50 0.47 0.44 0.41 0.39 0.37 0.35 0.33 0.32
0.28 0.30 0.33 0.35 0.38 0.50 0.61 0.64 0.73 0.82 0.99 1.05 1.05 1.07 1.08 1.11 1.13 1.19 1.16 1.13 1.12 1.06 1.04 0.99 0.98 0.98 0.96 0.92 0.86 0.75 0.70 0.68 0.69 0.73 0.68 0.66 0.59 0.55 0.52 0.50 0.48 0.44 0.40 0.37 0.36 0.34 0.32 0.31 0.29
0.28 0.28 0.30 0.34 0.52 0.62 0.63 0.72 0.81 0.91 1.02 0.99 1.01 1.01 1.06 1.09 1.13 1.18 1.18 1.17 1.15 1.13 1.06 1.06 1.00 0.97 0.94 0.90 0.76 0.70 0.68 0.68 0.72 0.70 0.68 0.63 0.59 0.55 0.52 0.49 0.45 0.40 0.37 0.36 0.34 0.31 0.29 0.27 0.25
0.29 0.25 0.29 0.44 0.57 0.64 0.75 0.69 0.76 0.95 0.95 0.88 0.94 1.00 1.04 1.09 1.16 1.17 1.19 1.19 1.18 1.10 1.05 0.97 0.94 0.96 0.92 0.79 0.72 0.71 0.69 0.69 0.70 0.67 0.66 0.63 0.59 0.54 0.50 0.45 0.41 0.37 0.34 0.31 0.28 0.26 0.26 0.24 0.23
0.26 0.24 0.20 0.46 0.60 0.65 0.62 0.55 0.80 0.93 0.88 0.86 0.91 0.96 1.04 1.09 1.12 1.16 1.19 1.15 1.10 1.03 0.99 0.99 1.01 0.93 0.83 0.75 0.68 0.66 0.64 0.65 0.66 0.66 0.64 0.60 0.55 0.50 0.45 0.42 0.36 0.32 0.28 0.26 0.24 0.23 0.22 0.22 0.21
0.24 0.18 0.21 0.37 0.60 0.54 0.55 0.59 0.78 0.90 0.89 0.86 0.89 0.96 1.04 1.06 1.05 1.09 1.12 1.06 1.03 1.05 1.01 0.96 0.92 0.82 0.69 0.65 0.62 0.61 0.63 0.64 0.65 0.63 0.58 0.53 0.50 0.46 0.41 0.33 0.29 0.27 0.26 0.24 0.23 0.23 0.24 0.22 0.21
0.19 0.19 0.23 0.29 0.49 0.56 0.56 0.59 0.74 0.85 0.89 0.87 0.88 0.98 1.00 1.00 0.99 1.01 1.00 1.01 1.05 1.02 0.94 0.87 0.77 0.64 0.61 0.59 0.59 0.59 0.60 0.57 0.55 0.52 0.48 0.46 0.42 0.36 0.31 0.28 0.25 0.25 0.24 0.24 0.24 0.24 0.24 0.23 0.22
0.24 0.23 0.24 0.39 0.52 0.55 0.56 0.58 0.69 0.83 0.87 0.85 0.90 0.93 0.91 0.91 0.93 0.94 0.97 0.97 0.94 0.87 0.81 0.71 0.59 0.58 0.57 0.56 0.54 0.54 0.51 0.49 0.47 0.44 0.39 0.33 0.29 0.27 0.26 0.25 0.24 0.24 0.23 0.23 0.23 0.23 0.22 0.22 0.23
0.26 0.26 0.32 0.42 0.54 0.55 0.57 0.58 0.71 0.78 0.82 0.86 0.85 0.86 0.85 0.84 0.81 0.88 0.89 0.88 0.83 0.78 0.65 0.57 0.56 0.55 0.55 0.53 0.51 0.49 0.47 0.44 0.38 0.32 0.28 0.25 0.24 0.24 0.24 0.23 0.23 0.23 0.21 0.20 0.21 0.22 0.21 0.22 0.23
0.31 0.30 0.33 0.36 0.50 0.59 0.58 0.52 0.59 0.71 0.78 0.81 0.83 0.84 0.82 0.80 0.81 0.83 0.81 0.78 0.73 0.60 0.53 0.55 0.55 0.54 0.52 0.50 0.49 0.46 0.41 0.33 0.26 0.23 0.21 0.22 0.21 0.21 0.22 0.21 0.22 0.21 0.21 0.20 0.22 0.23 0.22 0.20 0.22
0.27 0.34 0.35 0.38 0.38 0.34 0.53 0.33 0.50 0.60 0.63 0.72 0.76 0.78 0.76 0.82 0.84 0.76 0.71 0.66 0.58 0.53 0.54 0.54 0.53 0.51 0.51 0.48 0.43 0.35 0.27 0.20 0.19 0.19 0.19 0.19 0.19 0.19 0.20 0.20 0.21 0.21 0.21 0.21 0.21 0.23 0.24 0.24 0.22
0.31 0.40 0.37 0.40 0.36 0.38 0.40 0.33 0.40 0.56 0.54 0.63 0.70 0.73 0.78 0.81 0.75 0.70 0.64 0.57 0.52 0.54 0.54 0.54 0.51 0.51 0.47 0.43 0.35 0.27 0.20 0.18 0.18 0.17 0.16 0.17 0.18 0.18 0.19 0.20 0.21 0.21 0.22 0.23 0.24 0.23 0.23 0.25 0.24
0.39 0.35 0.36 0.37 0.33 0.24 0.34 0.33 0.31 0.42 0.56 0.63 0.69 0.74 0.75 0.74 0.71 0.65 0.56 0.51 0.54 0.56 0.55 0.53 0.49 0.45 0.41 0.35 0.28 0.21 0.17 0.15 0.14 0.14 0.14 0.15 0.16 0.17 0.18 0.20 0.21 0.23 0.23 0.24 0.25 0.25 0.23 0.22 0.22
0.28 0.27 0.20 0.20 0.21 0.19 0.37 0.34 0.37 0.53 0.60 0.66 0.67 0.71 0.70 0.69 0.63 0.52 0.47 0.50 0.54 0.54 0.53 0.49 0.43 0.38 0.34 0.28 0.23 0.18 0.16 0.15 0.14 0.14 0.15 0.15 0.16 0.16 0.18 0.20 0.21 0.23 0.25 0.24 0.25 0.24 0.22 0.23 0.22
0.25 0.22 0.18 0.14 0.15 0.20 0.37 0.30 0.39 0.58 0.67 0.70 0.73 0.68 0.66 0.60 0.51 0.47 0.49 0.52 0.54 0.54 0.50 0.45 0.40 0.32 0.29 0.24 0.18 0.16 0.16 0.15 0.15 0.16 0.17 0.17 0.18 0.18 0.20 0.21 0.23 0.24 0.24 0.23 0.23 0.24 0.24 0.24 0.24
0.23 0.23 0.29 0.25 0.30 0.24 0.31 0.39 0.50 0.59 0.60 0.62 0.63 0.62 0.56 0.47 0.46 0.47 0.51 0.54 0.54 0.51 0.47 0.42 0.35 0.31 0.24 0.19 0.16 0.15 0.15 0.15 0.16 0.17 0.17 0.18 0.18 0.19 0.20 0.21 0.21 0.22 0.22 0.23 0.24 0.24 0.24 0.24 0.22
0.26 0.31 0.23 0.28 0.21 0.21 0.29 0.32 0.32 0.45 0.49 0.55 0.57 0.54 0.43 0.43 0.47 0.49 0.52 0.54 0.53 0.49 0.45 0.37 0.33 0.26 0.20 0.16 0.16 0.16 0.15 0.16 0.16 0.15 0.15 0.15 0.17 0.18 0.18 0.19 0.20 0.20 0.21 0.23 0.23 0.23 0.21 0.21 0.24
0.28 0.25 0.29 0.34 0.32 0.22 0.20 0.26 0.46 0.44 0.49 0.52 0.53 0.41 0.40 0.44 0.48 0.49 0.53 0.53 0.51 0.48 0.38 0.34 0.29 0.22 0.16 0.15 0.16 0.16 0.15 0.16 0.15 0.14 0.13 0.13 0.13 0.15 0.16 0.18 0.18 0.19 0.20 0.21 0.21 0.20 0.23 0.27 0.29
0.29 0.27 0.29 0.23 0.23 0.29 0.25 0.25 0.47 0.49 0.53 0.53 0.40 0.39 0.44 0.47 0.48 0.50 0.52 0.51 0.48 0.41 0.34 0.29 0.23 0.18 0.16 0.17 0.16 0.15 0.16 0.15 0.14 0.13 0.12 0.12 0.12 0.12 0.14 0.15 0.15 0.17 0.18 0.18 0.22 0.23 0.30 0.30 0.29
Wind_Speed
3 3 1 1 2 2 3 4 4 4 5 4 6 5 2 3 5 5 5 4 1 2 4 5 6 7 9 9 10 12 13 14 15 17 18 19 21 22 22 23 24 24 24 25 25 25 26 27 26
4 3 2 2 1 4 6 4 3 4 5 2 4 4 5 4 5 3 5 3 2 3 5 6 7 8 10 11 11 13 14 16 17 18 19 20 21 22 23 25 25 25 26 26 27 27 27 27 27
4 3 3 2 2 3 5 4 4 3 4 3 4 6 6 6 6 5 4 2 3 4 6 7 9 10 11 12 13 14 15 17 18 19 20 22 23 24 25 26 26 26 27 28 28 28 28 28 28
4 4 3 2 3 4 5 5 4 5 4 6 5 6 7 8 6 6 3 3 4 6 7 8 9 10 12 13 14 15 17 18 20 21 22 24 25 26 26 27 27 28 28 29 29 29 29 31 31
5 4 4 4 6 6 5 5 4 4 3 8 6 5 5 8 5 3 2 4 6 7 9 9 11 12 13 14 15 17 18 19 21 23 24 25 26 27 28 28 29 29 30 30 31 31 32 32 33
6 6 5 6 7 8 7 6 5 4 6 5 5 5 6 4 4 3 3 6 6 8 9 11 12 13 14 15 16 18 19 21 22 24 24 26 27 28 29 30 31 31 31 31 32 32 32 32 33
8 7 8 8 8 8 8 6 7 6 7 8 6 6 5 5 5 5 7 7 8 9 11 12 12 13 14 16 18 19 21 22 24 24 26 27 29 30 30 31 31 31 33 34 34 34 34 34 34
10 9 9 9 9 10 9 8 8 9 9 8 8 8 8 7 6 7 7 8 9 10 11 12 13 14 15 16 18 19 21 23 24 25 27 29 30 31 32 32 33 34 34 34 34 34 34 34 35
12 10 11 11 9 11 10 11 11 11 9 8 10 9 6 5 6 6 8 8 10 11 12 11 12 13 15 17 19 21 23 24 26 27 28 29 31 32 33 34 34 34 34 34 34 35 36 36 37
13 12 14 12 12 13 14 12 11 11 10 10 9 6 6 6 7 9 9 8 10 11 11 11 13 14 17 19 21 23 25 26 27 28 29 31 33 34 33 33 34 34 35 35 36 37 38 38 38
14 15 14 15 17 16 15 14 13 10 13 13 10 7 7 8 11 9 8 9 10 10 10 12 14 16 19 21 23 25 27 28 29 29 31 32 33 33 34 34 35 36 37 38 38 39 39 39 39
14 15 16 17 16 15 15 12 11 11 13 10 7 8 10 10 10 9 8 9 9 10 12 14 16 19 21 22 26 28 29 29 28 30 31 32 33 34 35 36 37 38 39 40 40 40 40 41 41
12 13 13 15 17 15 11 11 10 10 9 6 6 7 8 9 8 7 8 8 10 12 14 16 18 21 23 26 29 29 29 29 30 31 32 33 34 36 37 38 39 40 40 41 41 41 41 41 41
11 12 14 13 10 10 9 9 10 9 7 5 7 7 9 7 7 8 9 10 12 13 16 19 20 22 25 29 30 29 30 31 32 33 33 35 37 38 39 39 40 41 42 42 41 41 40 39 39
11 11 9 9 9 8 10 8 8 8 7 6 7 8 8 8 8 10 11 13 13 15 18 18 22 25 28 31 31 32 33 33 34 35 36 38 39 39 40 41 42 42 42 41 41 40 39 38 37
9 8 8 9 9 8 8 9 9 8 6 6 7 8 8 9 9 12 12 12 14 16 18 21 24 27 30 32 32 33 34 35 36 37 38 40 40 41 41 42 42 42 42 41 41 39 38 37 37
8 9 8 9 9 13 11 8 7 7 6 6 7 8 8 9 12 11 12 14 15 17 20 23 26 30 31 31 33 33 34 35 37 38 39 41 41 41 42 42 42 42 42 41 40 39 38 38 38
10 9 8 9 10 4 3 5 6 6 5 7 8 8 9 10 11 12 13 14 15 19 21 25 28 29 30 31 32 33 35 37 38 39 40 41 41 42 42 42 42 42 41 41 40 40 39 39 39
10 9 8 9 10 6 4 5 7 8 7 8 8 9 9 10 11 12 12 15 17 20 24 26 27 29 30 32 33 35 36 38 39 40 40 41 41 41 41 42 42 42 41 41 41 40 39 38 37
9 8 8 7 6 6 5 5 8 8 9 9 8 8 9 10 11 12 15 16 19 22 25 26 27 29 31 33 35 36 37 38 38 39 40 41 41 42 42 41 41 41 41 41 39 38 36 35 35
10 10 10 9 6 7 6 8 9 9 8 9 9 9 10 9 10 14 14 17 21 23 24 25 27 30 32 35 36 37 37 38 39 40 40 41 42 42 41 41 41 41 39 38 37 35 34 32 31
11 11 9 9 8 10 11 12 12 10 9 9 9 10 10 11 13 14 16 19 21 23 24 26 29 32 33 36 36 36 37 38 39 40 40 41 41 41 41 40 39 38 37 36 34 33 32 31 30
10 7 6 7 7 7 11 10 12 9 11 10 10 10 11 12 13 15 17 19 21 23 24 28 30 32 35 36 36 37 38 39 40 40 40 40 41 41 40 38 38 37 35 34 33 32 31 31 30
8 4 4 6 7 9 10 9 11 11 11 11 11 11 11 12 13 15 17 19 22 24 26 28 31 34 35 35 36 38 39 39 40 40 40 40 40 39 38 38 37 36 34 33 33 32 32 32 32
5 5 6 8 8 10 9 8 11 12 10 10 9 9 10 11 13 15 17 20 22 25 28 30 32 33 35 36 37 39 39 39 40 40 40 40 39 38 37 37 36 34 34 34 34 33 34 33 33
8 7 7 9 9 10 9 9 10 10 8 6 6 8 9 11 13 15 17 20 23 26 28 30 32 34 35 36 38 39 38 39 40 40 40 39 38 38 37 36 35 35 35 35 35 34 34 34 35
7 5 6 5 7 7 8 9 9 7 6 4 6 8 9 11 13 15 17 21 23 26 29 31 33 34 36 37 38 38 38 39 39 39 38 38 38 37 36 35 35 35 35 35 34 33 34 36 36
6 5 6 7 5 8 8 8 8 7 7 6 7 8 9 11 12 15 18 21 24 27 29 31 33 35 36 37 37 38 38 38 38 38 37 37 36 35 35 36 36 35 35 33 33 34 36 36 36
5 5 4 3 4 5 7 8 8 8 6 6 7 8 9 10 12 15 19 22 24 27 30 32 33 35 36 36 37 37 37 37 37 37 37 36 35 35 36 36 35 35 35 34 34 35 35 36 35
3 3 4 4 7 6 5 8 10 4 4 5 6 7 9 11 13 16 19 22 25 28 30 32 33 34 35 36 36 36 36 36 36 37 36 35 35 36 36 36 36 36 36 35 34 35 35 34 33
Wind_Direction
185 173 195 334 9 10 311 306 276 314 317 331 352 6 359 348 337 314 329 324 333 334 330 322 323 324 324 323 321 321 320 320 319 318 318 318 318 317 318 317 317 316 315 314 313 310 308 306 304
187 206 260 274 7 345 322 317 272 314 316 329 351 353 354 344 339 326 325 319 323 327 329 326 325 324 323 323 321 320 319 318 318 318 318 319 319 318 318 317 316 314 313 312 311 310 308 307 304
201 249 266 264 284 293 315 293 278 308 357 323 335 344 346 333 334 324 319 300 312 326 329 326 324 322 321 319 318 317 318 317 317 317 318 318 318 317 316 316 314 313 311 311 310 308 307 306 303
234 262 280 286 271 289 316 313 280 272 282 322 311 334 327 319 312 315 297 297 315 322 324 323 325 323 320 318 317 316 316 316 316 316 315 315 315 315 315 314 314 313 311 310 309 307 305 304 302
250 255 277 285 278 286 305 321 292 296 286 309 289 301 312 329 320 310 305 310 308 313 319 319 320 319 318 317 316 315 316 316 316 316 315 316 315 314 313 313 313 312 310 309 308 306 305 303 302
253 253 272 273 274 282 287 289 312 332 302 313 330 320 319 346 359 341 307 308 308 311 314 317 316 317 318 317 317 317 316 316 316 315 315 315 316 315 314 313 312 311 309 309 308 307 306 305 303
242 253 255 266 275 286 275 281 287 302 316 303 306 317 302 314 312 318 312 308 312 313 317 316 317 317 318 318 317 317 317 316 315 315 315 315 315 315 314 313 312 311 310 308 307 306 305 304 303
245 250 256 267 266 274 283 273 278 299 304 306 301 291 286 280 296 307 313 314 314 314 316 316 316 318 319 319 320 319 318 317 317 317 316 315 315 315 314 313 311 310 310 309 308 307 306 305 304
246 256 256 260 254 271 279 279 279 290 292 302 311 308 285 261 297 308 310 311 317 316 317 318 321 323 324 324 322 322 320 319 317 316 316 316 316 315 314 313 312 311 311 310 308 307 306 304 303
245 247 249 251 261 274 275 277 266 284 285 291 310 312 293 281 285 304 298 305 311 313 317 321 324 324 324 324 323 322 322 320 318 317 317 316 317 316 315 315 313 312 311 309 308 307 306 304 303
245 248 251 260 265 274 272 271 268 281 285 281 278 270 281 276 293 301 296 300 305 311 312 316 319 322 322 322 323 322 321 320 318 317 317 316 317 318 317 315 314 313 311 309 308 307 306 304 303
251 251 256 267 272 274 272 259 276 285 296 284 268 271 286 284 285 286 296 298 302 307 309 313 318 319 320 320 322 320 319 319 318 317 317 317 317 317 317 315 314 313 311 310 308 307 306 304 303
249 257 265 269 275 272 265 269 272 293 299 287 277 287 292 295 288 284 296 303 303 305 310 313 314 317 318 319 320 319 319 319 317 318 317 317 317 317 316 316 315 314 312 311 308 307 306 305 303
249 259 270 277 278 270 255 265 270 281 276 289 292 295 301 296 290 287 294 303 305 307 311 313 315 317 318 319 320 319 319 319 318 318 317 317 317 317 317 316 316 315 313 312 310 308 307 305 304
261 263 272 281 279 259 262 287 288 271 271 289 296 300 299 299 296 297 297 298 303 307 314 316 317 317 318 319 320 320 320 320 319 318 318 318 317 317 317 316 315 315 314 312 311 309 308 306 305
261 263 259 266 283 266 271 275 289 283 279 300 309 310 310 310 307 304 302 306 307 312 317 318 318 319 321 321 321 321 321 321 319 318 318 318 317 317 317 316 316 315 314 313 312 309 308 306 305
266 251 255 260 301 265 272 266 284 278 277 299 311 307 306 312 316 314 310 313 312 315 317 318 319 321 322 322 322 323 323 323 322 320 319 318 317 316 316 316 316 315 314 313 312 310 307 306 305
252 250 251 263 287 312 279 270 286 284 289 294 310 308 311 316 317 316 317 316 316 319 321 320 321 322 323 324 324 324 323 323 323 322 321 320 318 317 316 316 316 316 314 313 312 310 308 306 304
244 244 249 254 255 291 275 272 273 277 287 297 301 308 310 315 316 319 317 317 319 322 322 322 324 325 326 325 324 323 323 322 322 323 322 322 321 320 318 317 317 317 315 314 313 311 309 308 307
236 238 253 263 247 267 256 283 272 278 285 290 295 299 307 312 315 321 320 321 324 323 324 325 327 328 328 327 327 325 324 323 323 323 324 323 323 322 320 319 318 318 317 316 315 314 312 310 310
242 242 241 238 253 269 242 279 280 287 282 292 299 302 307 308 308 318 322 323 324 325 326 327 329 329 329 329 328 327 326 325 325 325 325 325 324 323 322 321 320 319 319 319 318 317 315 314 314
258 238 213 217 263 265 272 279 277 274 281 288 294 300 303 309 314 319 323 324 326 327 328 329 330 330 330 330 330 330 329 328 327 327 326 326 326 325 324 324 323 322 322 322 321 320 317 315 313
240 219 225 252 279 275 286 289 292 266 275 278 282 287 294 301 309 317 322 325 328 329 329 329 330 331 331 332 332 332 332 330 329 329 329 328 328 328 327 327 326 325 324 323 322 322 320 317 313
199 226 287 275 281 290 283 281 287 277 274 270 273 282 291 302 310 316 322 326 329 330 330 331 332 333 333 333 333 334 333 332 332 332 332 331 331 330 330 329 327 326 325 324 323 321 319 318 313
234 240 279 281 281 275 295 290 297 283 279 262 269 278 291 302 310 317 322 327 329 331 332 333 334 334 334 334 335 335 334 335 335 334 334 333 333 333 332 331 330 329 327 325 323 320 319 318 315
244 238 244 265 268 279 294 286 296 305 290 285 281 289 298 305 310 317 322 327 330 333 334 335 336 335 336 336 336 337 337 337 337 336 336 336 335 335 334 334 333 331 329 327 325 323 321 320 317
226 254 264 285 292 287 283 294 301 304 307 290 288 294 301 306 312 318 324 329 331 334 336 337 336 337 337 337 338 339 339 339 339 339 339 339 338 338 338 337 336 334 332 330 329 328 325 323 320
231 236 288 298 274 280 283 286 290 275 277 280 287 295 304 310 316 322 327 330 333 336 337 338 338 339 339 340 341 341 341 342 342 343 342 342 342 342 341 340 339 337 336 336 334 332 330 328 326
242 282 313 284 289 272 287 293 305 275 257 269 290 298 307 316 321 326 329 334 336 337 339 339 340 340 341 342 343 343 344 345 345 346 345 345 345 345 345 343 342 341 340 338 336 336 335 333 332
243 276 279 287 281 296 291 295 313 279 256 288 301 310 321 323 325 329 333 336 337 339 340 341 341 342 343 344 344 345 346 346 348 348 349 350 350 349 347 346 345 344 343 341 339 339 339 339 338